Meteopurmerend
purmerend
Purmerend - Baaienwijk



My webcam  My webcam


waarschuwing voor Onweer Meer informatie blitzortung!


Regen radar Meer informatie rain snow radar


Bezoek onze andere website:

CandyAppleRed WebdesignWebdesign Purmerend Candy Apple Red

MeteopurmerendBlog

Template documentation
and downloads



Onweer van: 19-06-2019 10:00 tot: 23:00 waarschuwing voor: Onweer niveau: Geel info button
Enkele onweersbuien, mogelijk met hagel en windstoten tot ca. 75 km/uur.Verkeer en buitenactiviteiten kunnen hinder ondervinden.Mijd open water en open gebied, schuil niet onder bomen.Volg weerberichten en waarschuwingen.

15 daagse weersverwachting Strasbourg (FR)

  • Overzicht
  • Per uur
  • 15 dagen
  • Extra
  • Vergelijk
  • Kaarten
  • Dagkaart
  • Meer »
  • Info
  • Statistieken
  • Directe link
    Temp 6h Neerslag Wind  
 05:28     21:34    Daglengte: 16:06 Vandaag
14:00
30°
 
4
20:00
27°
 
3
 05:28     21:34    Daglengte: 16:06 Morgen
02:00
20°
 
2
08:00
19°
9.2 mm
2
14:00
23°
9.3 mm
2
warningclass
20:00
21°
15.5 mm
2
 05:28     21:35    Daglengte: 16:07 Vrijdag 21 Jun
02:00
17°
 
1
08:00
17°
 
2
14:00
23°
 
3
20:00
23°
 
3
 05:28     21:35    Daglengte: 16:07 Zaterdag 22 Jun
02:00
17°
 
4
08:00
17°
 
5
Locatie info
Region: Grand Est
Latitude: 48.5851°N
Longitude: 7.7364°E
147 masl
Postcode: 67000
Temp/Neerslag /Baro Onweer/Dauwpunt
    Temp Baro 1h Neerslag Dauwpunt Wind UV Bewolking  
 05:28     21:34    Daglengte: 16:06 Vandaag
14:00
30°
Voelt als: 29.2°
1009.3 hPa   12.9°
4
Windvlaag: 2.9 m/s
9%
15:00
31°
Voelt als: 29.7°
1008.9 hPa   12.2°
5
Windvlaag: 2.9 m/s
1%
16:00
31°
Voelt als: 29.7°
1008.5 hPa   12.2°
5
Windvlaag: 2.8 m/s
6%
17:00
30°
Voelt als: 28.7°
1008.4 hPa   11.2°
4
Windvlaag: 2.8 m/s
31%
18:00
29°
Voelt als: 28.1°
1008.6 hPa   11.5°
3
Windvlaag: 2.6 m/s
17%
19:00
28°
Voelt als: 27.9°
1008.8 hPa
16%
13.3°
3
Windvlaag: 2.2 m/s
36%
20:00
27°
1008.9 hPa
15%
16.1°
3
Windvlaag: 1.6 m/s
32%
21:00
26°
1009.5 hPa
16%
17.4°
2
Windvlaag: 1.5 m/s
75%
22:00
24°
1010.1 hPa
34%
17.5°
2
Windvlaag: 1.6 m/s
72%
23:00
23°
1010.5 hPa
68%
16.8°
2
Windvlaag: 0.9 m/s
83%
 05:28     21:34    Daglengte: 16:06 Morgen
00:00
21°
1010.7 hPa
76%
17.4°
2
Windvlaag: 0.5 m/s
66%
01:00
21°
1011.1 hPa
38%
17.5°
1
Windvlaag: 0.9 m/s
73%
02:00
20°
1011.4 hPa
80%
18.0°
2
Windvlaag: 1.3 m/s
73%
03:00
19°
1011.9 hPa 1.2 mm
78%
17.3°
2
Windvlaag: 0.9 m/s
75%
04:00
19°
1012.1 hPa 2.6 mm
81%
16.8°
2
Windvlaag: -0.2 m/s
72%
05:00
18°
1012.3 hPa 1.9 mm
82%
16.9°
2
Windvlaag: 0.3 m/s
74%
06:00
18°
1012.5 hPa 1.9 mm
72%
16.7°
2
Windvlaag: 0.4 m/s
62%
07:00
19°
1012.9 hPa 1.6 mm
72%
16.9°
2
Windvlaag: 0.9 m/s
44%
08:00
19°
1013.1 hPa
69%
16.9°
2
Windvlaag: 1.3 m/s
35%
09:00
20°
1013.2 hPa
74%
17.0°
2
Windvlaag: 1.3 m/s
43%
10:00
21°
1013.2 hPa 1.8 mm
82%
16.6°
2
Windvlaag: 0.6 m/s
64% warningclass
11:00
22°
1013.4 hPa 1.7 mm
78%
16.6°
2
Windvlaag: -0.5 m/s
73% warningclass
12:00
22°
1013.6 hPa 3.4 mm
74%
17.1°
2
Windvlaag: 0.1 m/s
55% warningclass
13:00
23°
1013.5 hPa
82%
16.9°
3
Windvlaag: 2.6 m/s
67%
14:00
23°
1013.3 hPa 2.4 mm
82%
16.9°
2
Windvlaag: 2.3 m/s
54% warningclass
15:00
23°
1013.1 hPa 2.0 mm
82%
16.1°
2
Windvlaag: 2.4 m/s
50% warningclass
16:00
24°
1012.8 hPa 2.0 mm
82%
15.3°
3
Windvlaag: 1.9 m/s
53%
17:00
23°
1012.8 hPa 2.8 mm
82%
16.2°
3
Windvlaag: 2.2 m/s
43% warningclass
18:00
22°
1013.4 hPa 4.0 mm
82%
17.4°
3
Windvlaag: 1.6 m/s
28%
19:00
21°
1013.6 hPa 2.3 mm
78%
15.6°
2
Windvlaag: -1.6 m/s
32%
20:00
21°
1014.0 hPa 2.5 mm
70%
15.8°
2
Windvlaag: -0.9 m/s
38%
21:00
20°
1014.4 hPa
18%
16.5°
2
Windvlaag: -0.1 m/s
25%
22:00
19°
1015.2 hPa
19%
16.3°
2
Windvlaag: 0.3 m/s
37%
23:00
19°
1015.8 hPa
17%
16.2°
1
Windvlaag: 0.6 m/s
67%
 05:28     21:35    Daglengte: 16:07 Vrijdag 21 Jun
00:00
18°
1016.2 hPa
16%
15.7°
1
Windvlaag: 0.8 m/s
46%
01:00
17°
1016.4 hPa
14%
15.4°
1
Windvlaag: 0.6 m/s
45%
02:00
17°
1016.5 hPa
14%
15.1°
1
Windvlaag: 0.5 m/s
66%
03:00
17°
1016.6 hPa
15%
14.8°
2
Windvlaag: 0.2 m/s
46%
04:00
16°
1016.7 hPa
16%
14.3°
2
Windvlaag: -0.6 m/s
29%
05:00
16°
1016.9 hPa
18%
13.9°
2
Windvlaag: -0.6 m/s
28%
06:00
16°
1017.3 hPa
16%
13.8°
2
Windvlaag: -0.8 m/s
60%
07:00
16°
1017.8 hPa
14%
14.0°
2
Windvlaag: -1.1 m/s
36%
08:00
17°
1018.1 hPa
14%
14.0°
2
Windvlaag: -1.2 m/s
27%
09:00
18°
1018.4 hPa
14%
14.5°
2
Windvlaag: -1.2 m/s
11%
10:00
19°
1018.5 hPa
14%
14.7°
2
Windvlaag: -1.6 m/s
18%
11:00
21°
1018.7 hPa
21%
13.9°
2
Windvlaag: -1.7 m/s
22%
12:00
22°
1018.6 hPa
21%
13.3°
2
Windvlaag: -1.8 m/s
7%
13:00
23°
1018.1 hPa
21%
12.8°
2
Windvlaag: -2.1 m/s
4%
14:00
23°
1017.6 hPa
22%
12.3°
3
Windvlaag: -2.2 m/s
20%
15:00
24°
1017.2 hPa
24%
11.8°
3
Windvlaag: -2.2 m/s
15%
16:00
24°
1017.0 hPa
22%
11.0°
3
Windvlaag: -2.3 m/s
37%
17:00
24°
1016.9 hPa
21%
10.6°
4
Windvlaag: -2.3 m/s
39%
18:00
24°
1016.8 hPa
21%
10.5°
4
Windvlaag: -2.3 m/s
19%
19:00
23°
1017.1 hPa
21%
10.9°
4
Windvlaag: -2.5 m/s
46%
20:00
23°
1017.4 hPa
21%
11.9°
3
Windvlaag: -2.4 m/s
61%
21:00
21°
1017.7 hPa
21%
11.4°
3
Windvlaag: -2 m/s
76%
22:00
20°
1018.1 hPa
21%
9.7°
3
Windvlaag: -1.4 m/s
76%
23:00
19°
1018.2 hPa
21%
9.6°
3
Windvlaag: -0.8 m/s
83%
 05:28     21:35    Daglengte: 16:07 Zaterdag 22 Jun
00:00
19°
1018.3 hPa
21%
9.5°
3
Windvlaag: -1.2 m/s
75%
01:00
18°
1018.5 hPa
21%
9.4°
3
Windvlaag: -2.3 m/s
48%
02:00
17°
1018.3 hPa
21%
8.8°
4
Windvlaag: -3.6 m/s
51%
03:00
17°
1018.2 hPa
21%
8.7°
4
Windvlaag: -3.5 m/s
50%
04:00
17°
1017.9 hPa
21%
8.6°
5
Windvlaag: -3.7 m/s
45%
05:00
16°
1017.8 hPa
21%
8.9°
5
Windvlaag: -3.7 m/s
44%
06:00
16°
1017.8 hPa
21%
9.6°
5
Windvlaag: -3.9 m/s
40%
07:00
16°
1018.0 hPa
21%
10.4°
5
Windvlaag: -3.8 m/s
53%
08:00
17°
1018.1 hPa
23%
11.2°
5
Windvlaag: -3.7 m/s
77%
09:00
17°
1017.9 hPa
21%
11.6°
4
Windvlaag: 3.3 m/s
75%
10:00
19°
1017.6 hPa
21%
12.5°
4
Windvlaag: 4.9 m/s
81%
11:00
20°
1017.2 hPa
21%
13.3°
4
Windvlaag: 4.2 m/s
89%
12:00
21°
1016.9 hPa
21%
14.0°
5
Windvlaag: 2.9 m/s
87%
13:00
23°
1016.6 hPa
21%
14.7°
5
Windvlaag: 4 m/s
73%
Temp/Neerslag /Baro Onweer/Dauwpunt
    Temp Baro Neerslag Dauwpunt Wind Bewolking  
 05:28     21:34    Daglengte: 16:06 Vandaag
14:00
30°
Voelt als: 29.2°
1009.3 hPa   12.9°
4
9%
17:00
30°
Voelt als: 28.7°
1008.4 hPa   11.2°
4
31%
20:00
27°
1008.9 hPa   16.1°
3
32%
23:00
23°
1010.5 hPa   16.8°
2
83%
 05:28     21:34    Daglengte: 16:06 Morgen
02:00
20°
1011.4 hPa   18.0°
2
73%
05:00
18°
1012.3 hPa 5.6 mm 16.9°
2
74%
08:00
19°
1013.1 hPa 3.5 mm 16.9°
2
35%
11:00
22°
1013.4 hPa 3.5 mm 16.6°
2
73% warningclass
14:00
23°
1013.3 hPa 5.9 mm 16.9°
2
54% warningclass
17:00
23°
1012.8 hPa 6.8 mm 16.2°
3
43% warningclass
20:00
21°
1014.0 hPa 8.8 mm 15.8°
2
38%
23:00
19°
1015.8 hPa   16.2°
1
67%
 05:28     21:35    Daglengte: 16:07 Vrijdag 21 Jun
02:00
17°
1016.5 hPa   15.1°
1
66%
05:00
16°
1016.9 hPa   13.9°
2
28%
08:00
17°
1018.1 hPa   14.0°
2
27%
11:00
21°
1018.7 hPa   13.9°
2
22%
14:00
23°
1017.6 hPa   12.3°
3
20%
17:00
24°
1016.9 hPa   10.6°
4
39%
20:00
23°
1017.4 hPa   11.9°
3
61%
23:00
19°
1018.2 hPa   9.6°
3
83%
 05:28     21:35    Daglengte: 16:07 Zaterdag 22 Jun
02:00
17°
1018.3 hPa   8.8°
4
51%
05:00
16°
1017.8 hPa   8.9°
5
44%
08:00
17°
1018.1 hPa   11.2°
5
77%
11:00
20°
1017.2 hPa   13.3°
4
89%
14:00
24°
1016.2 hPa   15.0°
5
76%
17:00
23°
1016.6 hPa 18.7 mm 15.9°
4
91%
20:00
22°
1016.8 hPa 22.4 mm 16.3°
4
92%
23:00
20°
1017.5 hPa 24.1 mm 15.4°
4
90%
 05:29     21:35    Daglengte: 16:06 Zondag 23 Jun
02:00
18°
1018.2 hPa 24.1 mm 14.5°
3
89%
05:00
18°
1018.6 hPa 24.1 mm 14.4°
3
45%
08:00
18°
1019.2 hPa 24.1 mm 14.6°
4
1%
11:00
22°
1018.8 hPa 24.1 mm 15.4°
4
18%
14:00
26°
1018.4 hPa 24.1 mm 15.5°
5
36%
17:00
26°
1018.1 hPa 24.1 mm 16.0°
5
22%
20:00
25°
1017.8 hPa 24.1 mm 16.6°
4
8%
23:00
21°
1018.6 hPa 24.1 mm 16.4°
3
4%
 05:29     21:35    Daglengte: 16:06 Maandag 24 Jun
02:00
18°
1019.2 hPa 24.1 mm 15.7°
2
0%
05:00
19°
1019.4 hPa 24.1 mm 16.0°
3
0%
08:00
20°
1019.6 hPa 24.1 mm 16.5°
3
0%
11:00
24°
1019.3 hPa 24.1 mm 17.2°
4
0%
14:00
29°
1018.9 hPa 24.1 mm 16.4°
4
0%
17:00
29°
1018.6 hPa 24.1 mm 17.6°
3
0%
20:00
28°
1018.5 hPa 24.1 mm 18.9°
3
0%
23:00
23°
1019.4 hPa 24.1 mm 18.1°
2
3%
 05:29     21:35    Daglengte: 16:06 Dinsdag 25 Jun
02:00
19°
1020.3 hPa 24.1 mm 16.6°
2
6%
05:00
20°
1020.5 hPa 24.1 mm 16.1°
1
4%
08:00
20°
1020.9 hPa 24.1 mm 15.9°
1
1%
11:00
25°
1020.5 hPa 24.1 mm 17.7°
1
1%
14:00
30°
1020.1 hPa 24.1 mm 18.8°
2
0%
17:00
30°
1019.3 hPa 24.1 mm 20.4°
2
0%
20:00
30°
1018.5 hPa 24.1 mm 21.8°
2
1%
23:00
26°
1019.3 hPa 24.1 mm 19.8°
1
0%
 05:30     21:35    Daglengte: 16:05 Woensdag 26 Jun
02:00
22°
1020.0 hPa 24.1 mm 17.4°
1
0%
05:00
22°
1020.1 hPa 24.1 mm 17.2°
1
0%
08:00
21°
1020.2 hPa 24.1 mm 17.2°
0
0%
11:00
26°
1019.8 hPa   18.4°
1
0%
14:00
31°
1019.3 hPa 48.2 mm 18.4°
1
0%
20:00
31°
1017.6 hPa 48.2 mm 22.2°
1
0%
 05:30     21:35    Daglengte: 16:05 Donderdag 27 Jun
02:00
22°
1017.9 hPa 48.2 mm 20.2°
2
11%
08:00
23°
1017.9 hPa 48.2 mm 20.1°
2
0%
14:00
34°
1016.7 hPa 48.2 mm 20.3°
2
0%
20:00
33°
1014.8 hPa 48.2 mm 23.3°
2
0%
 05:31     21:35    Daglengte: 16:04 Vrijdag 28 Jun
02:00
24°
1015.7 hPa 48.2 mm 22.0°
2
0%
08:00
24°
1016.1 hPa 48.3 mm 21.1°
1
0%
14:00
35°
1014.4 hPa 48.7 mm 18.7°
2
0%
20:00
33°
1012.2 hPa 48.9 mm 21.9°
2
1%
 05:31     21:35    Daglengte: 16:04 Zaterdag 29 Jun
02:00
24°
1012.6 hPa 51.8 mm 22.7°
2
7%
08:00
20°
1013.9 hPa 0.3 mm 17.3°
1
29%
14:00
27°
1012.9 hPa 0.3 mm 18.1°
0
21%
20:00
25°
1012.5 hPa 0.4 mm 19.6°
1
23%
 05:32     21:35    Daglengte: 16:03 Zondag 30 Jun
02:00
18°
1013.3 hPa 0.7 mm 15.1°
0
30%
08:00
20°
1013.7 hPa 1.0 mm 16.7°
1
35%
14:00
25°
1013.4 hPa 1.0 mm 17.0°
3
35%
20:00
24°
1013.4 hPa 0.6 mm 18.1°
2
26%
 05:32     21:34    Daglengte: 16:02 Maandag 01 Jul
02:00
16°
1014.8 hPa 0.4 mm 14.0°
1
28%
08:00
18°
1015.0 hPa 0.5 mm 15.3°
1
33%
14:00
24°
1014.1 hPa 0.6 mm 15.5°
3
38%
20:00
22°
1013.9 hPa 1.1 mm 16.9°
2
36%
 05:33     21:34    Daglengte: 16:01 Dinsdag 02 Jul
02:00
15°
1015.1 hPa 2.5 mm 13.5°
1
37%
08:00
17°
1015.4 hPa 1.8 mm 14.6°
2
40%
14:00
22°
1014.7 hPa 1.2 mm 14.9°
3
39%
20:00
21°
1014.7 hPa 1.2 mm 16.3°
2
35%
 05:34     21:34    Daglengte: 16:00 Woensdag 03 Jul
02:00
14°
1016.6 hPa 0.6 mm 12.2°
1
30%
08:00
15°
1017.3 hPa 0.2 mm 12.9°
1
32%
14:00
21°
1016.7 hPa 0.4 mm 13.6°
2
41%
20:00
20°
1016.4 hPa 0.9 mm 15.2°
1
41%
 05:34     21:33    Daglengte: 15:59 Donderdag 04 Jul
02:00
13°
1017.6 hPa 0.3 mm 11.3°
0
30%
08:00
16°
1018.0 hPa 0.6 mm 12.9°
0
41%
  CAPE Lifted Index Hail Supercell Tornado SRH 3km CL BTM PRES CL TOP PRES Swiss DWD icon SMHI TS
 05:28     21:34    Daglengte: 16:06 Vandaag
14:00 737 J/kg -3.6 K 0 % 0 % 0 % 0 m²/s² 0 0 -1.14 0
15:00 649 J/kg -3.0 K 0 % 0 % 0 % 0 m²/s² 0 0 -0.75 0
16:00 503 J/kg -2.4 K 0 % 0 % 0 % 0 m²/s² 0 0 -0.84 0
17:00 375 J/kg -2.1 K 0 % 0 % 0 % 0 m²/s² 0 0 -0.66 0
18:00 377 J/kg -2.0 K 0 % 0 % 0 % 0 m²/s² 0 0 -1.04 1
19:00 813 J/kg -3.5 K 0 % 0 % 0 % 0 m²/s² 0 0 -2.63 1
20:00 993 J/kg -3.9 K 0 % 0 % 0 % 0 m²/s² 0 0 -2.85 2
21:00 1222 J/kg -4.2 K 0 % 0 % 0 % 0 m²/s² 0 0 -3.57 2
22:00 1144 J/kg -3.6 K 0 % 0 % 0 % 0 m²/s² 0 0 -2.7 3
23:00 793 J/kg -3.3 K 0 % 0 % 0 % 0 m²/s² 0 0 -2.79 3
 05:28     21:34    Daglengte: 16:06 Morgen
00:00 285 J/kg -2.5 K 0 % 0 % 0 % 0 m²/s² 0 0 -1.96 3
01:00 569 J/kg -3.9 K 0 % 0 % 0 % 0 m²/s² 0 0 -3.72 3
02:00 543 J/kg -2.9 K 0 % 0 % 0 % 0 m²/s² 0 0 -2.54 3
03:00 1 J/kg 1.0 K 0 % 0 % 0 % 0 m²/s² 0 0 1.45 80
04:00 0 J/kg 0.3 K 0 % 0 % 0 % 0 m²/s² 0 0 0.96 80
05:00 0 J/kg 0.7 K 0 % 0 % 0 % 0 m²/s² 0 0 1.6 3
06:00 0 J/kg 0.5 K 0 % 0 % 0 % 0 m²/s² 0 0 1.64 3
07:00 0 J/kg -1.0 K 0 % 0 % 0 % 0 m²/s² 0 0 -0.31 80
08:00 262 J/kg -1.8 K 0 % 0 % 0 % 0 m²/s² 0 0 -0.66 3
09:00 759 J/kg -3.0 K 0 % 0 % 0 % 0 m²/s² 0 0 -1.65 3
10:00 1018 J/kg -3.7 K 0 % 0 % 0 % 0 m²/s² 0 0 -2.11 95
11:00 1068 J/kg -3.9 K 0 % 0 % 0 % 0 m²/s² 0 0 -2.55 3
12:00 1018 J/kg -4.0 K 0 % 0 % 0 % 0 m²/s² 0 0 -2.65 3
13:00 945 J/kg -3.6 K 0 % 0 % 0 % 0 m²/s² 0 0 -2.55 3
14:00 1145 J/kg -4.3 K 0 % 0 % 0 % 0 m²/s² 0 0 -3.82 80
15:00 796 J/kg -3.1 K 0 % 0 % 0 % 0 m²/s² 0 0 -2.44 3
16:00 701 J/kg -3.1 K 0 % 0 % 0 % 0 m²/s² 0 0 -1.57 80
17:00 901 J/kg -3.9 K 0 % 0 % 0 % 0 m²/s² 0 0 -1.47 95
18:00 989 J/kg -4.0 K 0 % 0 % 0 % 0 m²/s² 0 0 -1.78 2
19:00 828 J/kg -3.5 K 0 % 0 % 0 % 0 m²/s² 0 0 -0.71 80
20:00 581 J/kg -2.6 K 0 % 0 % 0 % 0 m²/s² 0 0 0.43 80
21:00 394 J/kg -1.7 K 0 % 0 % 0 % 0 m²/s² 0 0 0.94 3
22:00 246 J/kg -1.0 K 0 % 0 % 0 % 0 m²/s² 0 0 2.39 3
23:00 85 J/kg -0.5 K 0 % 0 % 0 % 0 m²/s² 0 0 2.98 3
 05:28     21:35    Daglengte: 16:07 Vrijdag 21 Jun
00:00 55 J/kg -0.6 K 0 % 0 % 0 % 0 m²/s² 0 0 2.61 1
01:00 0 J/kg -0.4 K 0 % 0 % 0 % 0 m²/s² 0 0 2.9 2
02:00 0 J/kg -0.5 K 0 % 0 % 0 % 0 m²/s² 0 0 3.07 3
03:00 0 J/kg -0.5 K 0 % 0 % 0 % 0 m²/s² 0 0 2.95 3
04:00 0 J/kg 0.1 K 0 % 0 % 0 % 0 m²/s² 0 0 3.49 2
05:00 0 J/kg 0.6 K 0 % 0 % 0 % 0 m²/s² 0 0 4.17 2
06:00 0 J/kg 0.7 K 0 % 0 % 0 % 0 m²/s² 0 0 4.18 3
07:00 0 J/kg 0.7 K 0 % 0 % 0 % 0 m²/s² 0 0 4.36 3
08:00 0 J/kg 1.0 K 0 % 0 % 0 % 0 m²/s² 0 0 4.75 3
09:00 0 J/kg 1.1 K 0 % 0 % 0 % 0 m²/s² 0 0 4.94 2
10:00 71 J/kg -0.1 K 0 % 0 % 0 % 0 m²/s² 0 0 3.56 2
11:00 125 J/kg -0.4 K 0 % 0 % 0 % 0 m²/s² 0 0 3.17 2
12:00 124 J/kg -0.3 K 0 % 0 % 0 % 0 m²/s² 0 0 3.27 2
13:00 116 J/kg -0.4 K 0 % 0 % 0 % 0 m²/s² 0 0 3.08 2
14:00 171 J/kg -0.5 K 0 % 0 % 0 % 0 m²/s² 0 0 2.89 2
15:00 122 J/kg -0.1 K 0 % 0 % 0 % 0 m²/s² 0 0 3.29 2
16:00 43 J/kg 0.8 K 0 % 0 % 0 % 0 m²/s² 0 0 4.04 2
17:00 7 J/kg 0.9 K 0 % 0 % 0 % 0 m²/s² 0 0 3.96 3
18:00 1 J/kg 0.7 K 0 % 0 % 0 % 0 m²/s² 0 0 4.03 2
19:00 14 J/kg 0.2 K 0 % 0 % 0 % 0 m²/s² 0 0 3.02 2
20:00 16 J/kg 0.2 K 0 % 0 % 0 % 0 m²/s² 0 0 2.87 2
21:00 25 J/kg 0.0 K 0 % 0 % 0 % 0 m²/s² 0 0 2.22 2
22:00 0 J/kg 1.2 K 0 % 0 % 0 % 0 m²/s² 0 0 3.15 2
23:00 0 J/kg 1.6 K 0 % 0 % 0 % 0 m²/s² 0 0 3.49 2
 05:28     21:35    Daglengte: 16:07 Zaterdag 22 Jun
00:00 0 J/kg 0.9 K 0 % 0 % 0 % 0 m²/s² 0 0 2.25 3
01:00 0 J/kg 0.5 K 0 % 0 % 0 % 0 m²/s² 0 0 0.62 2
02:00 0 J/kg 0.4 K 0 % 0 % 0 % 0 m²/s² 0 0 0.49 2
03:00 0 J/kg -0.3 K 0 % 0 % 0 % 0 m²/s² 0 0 0.3 2
04:00 0 J/kg -0.8 K 0 % 0 % 0 % 0 m²/s² 0 0 0.16 2
05:00 0 J/kg -0.7 K 0 % 0 % 0 % 0 m²/s² 0 0 -0.61 2
06:00 0 J/kg -0.3 K 0 % 0 % 0 % 0 m²/s² 0 0 -0.18 2
07:00 0 J/kg 0.2 K 0 % 0 % 0 % 0 m²/s² 0 0 0.2 2
08:00 0 J/kg 0.2 K 0 % 0 % 0 % 0 m²/s² 0 0 0.29 2
09:00 0 J/kg 0.2 K 0 % 0 % 0 % 0 m²/s² 0 0 0.47 2
10:00 0 J/kg 0.4 K 0 % 0 % 0 % 0 m²/s² 0 0 0.88 3
11:00 0 J/kg 1.0 K 0 % 0 % 0 % 0 m²/s² 0 0 1.75 3
12:00 10 J/kg 1.2 K 0 % 0 % 0 % 0 m²/s² 0 0 2.01 3
13:00 86 J/kg 0.3 K 0 % 0 % 0 % 0 m²/s² 0 0 1.05 3
Temp Baro Wind Neerslag
  EWN Forecast EWN WRFDA DWD ICON FMI HIRLAM MET Norway GFS
 05:28     21:34    Daglengte: 16:06 Vandaag
14:00 30.0° 1009.3 hPa 3.9 m/s 0.0 mm 27.4° 1009.8 hPa 2.8 m/s 0.0 mm 30.0° 1009.6 hPa 3.5 m/s -2.0 mm 30.9° 1009.4 hPa 3.8 m/s 0.0 mm 29.4° 1009.2 hPa 4.6 m/s 0.0 mm 28.2° 1010.5 hPa 3.3 m/s
17:00 29.8° 1008.4 hPa 4.3 m/s 0.0 mm 29.4° 1008.2 hPa 4.0 m/s 0.0 mm 30.6° 1008.6 hPa 3.2 m/s 0.0 mm 31.9° 1008.0 hPa 3.6 m/s 0.0 mm 29.5° 1008.3 hPa 4.5 m/s 0.0 mm 28.4° 1009.4 hPa 2.6 m/s
20:00 27.2° 1008.9 hPa 2.6 m/s 0.0 mm 27.2° 1008.2 hPa 2.2 m/s 0.3 mm 28.0° 1008.3 hPa 2.4 m/s 0.0 mm 30.0° 1008.2 hPa 1.8 m/s 0.0 mm 25.1° 1009.8 hPa 3.2 m/s 0.0 mm 25.2° 1009.7 hPa 3.3 m/s
23:00 22.6° 1010.5 hPa 1.5 m/s 0.0 mm 22.2° 1009.7 hPa 1.3 m/s 0.8 mm 22.5° 1010.7 hPa 1.4 m/s 0.0 mm 24.1° 1009.9 hPa 1.6 m/s 0.0 mm 21.4° 1010.8 hPa 1.5 m/s 0.0 mm 21.0° 1011.7 hPa 2.5 m/s
 05:28     21:34    Daglengte: 16:06 Morgen
02:00 20.4° 1011.4 hPa 1.7 m/s 0.0 mm 20.9° 1010.0 hPa 7.0 m/s 1.5 mm 19.9° 1012.4 hPa 1.2 m/s 0.1 mm 21.3° 1011.2 hPa 1.7 m/s 0.0 mm 18.9° 1011.5 hPa 1.0 m/s 0.0 mm 18.5° 1012.6 hPa 2.2 m/s
05:00 18.4° 1012.3 hPa 1.6 m/s 5.6 mm 17.0° 1011.5 hPa 3.6 m/s 19.7 mm 18.1° 1012.3 hPa 1.0 m/s 1.3 mm 19.6° 1012.3 hPa 1.7 m/s 0.0 mm 17.4° 1012.6 hPa 1.6 m/s 3.7 mm 17.6° 1012.9 hPa 1.6 m/s
08:00 19.3° 1013.1 hPa 2.4 m/s 3.5 mm 18.7° 1012.2 hPa 3.1 m/s 20.1 mm 19.1° 1013.4 hPa 2.3 m/s 0.5 mm 20.6° 1013.1 hPa 2.8 m/s 0.0 mm 18.4° 1013.3 hPa 2.4 m/s 1.6 mm 18.9° 1014.0 hPa 2.5 m/s
11:00 21.7° 1013.4 hPa 1.9 m/s 3.5 mm 22.1° 1012.4 hPa 2.4 m/s 21.4 mm 21.3° 1014.1 hPa 2.6 m/s 0.9 mm 22.5° 1013.2 hPa 1.8 m/s 0.0 mm 20.9° 1013.4 hPa 2.0 m/s 0.5 mm 21.5° 1014.6 hPa 2.5 m/s
14:00 22.6° 1013.3 hPa 2.2 m/s 5.9 mm 22.6° 1012.6 hPa 1.7 m/s 27.2 mm 22.2° 1014.3 hPa 2.8 m/s 1.5 mm 23.9° 1012.8 hPa 1.6 m/s 0.0 mm 22.2° 1013.5 hPa 2.0 m/s 5.0 mm 22.7° 1014.5 hPa 2.4 m/s
17:00 22.9° 1012.8 hPa 2.7 m/s 6.8 mm 23.2° 1011.9 hPa 6.0 m/s 32.4 mm 20.8° 1014.4 hPa 2.7 m/s 4.2 mm 25.3° 1012.7 hPa 2.4 m/s 0.0 mm 22.4° 1012.7 hPa 2.2 m/s 1.3 mm 22.8° 1013.9 hPa 2.6 m/s
20:00 20.8° 1014.0 hPa 1.7 m/s 8.8 mm 22.8° 1012.9 hPa 4.0 m/s 33.5 mm 19.9° 1015.7 hPa 1.8 m/s 2.0 mm 22.3° 1013.3 hPa 3.0 m/s 0.0 mm 20.4° 1013.9 hPa 1.2 m/s 5.7 mm 20.7° 1014.8 hPa 2.0 m/s
23:00 18.6° 1015.8 hPa 1.4 m/s 0.0 mm 19.1° 1014.4 hPa 3.2 m/s 33.5 mm 18.2° 1016.6 hPa 0.6 m/s 0.0 mm 19.0° 1015.4 hPa 1.5 m/s 0.0 mm 17.8° 1015.8 hPa 1.8 m/s 0.0 mm 17.4° 1016.7 hPa 1.8 m/s
 05:28     21:35    Daglengte: 16:07 Vrijdag 21 Jun
02:00 17.0° 1016.5 hPa 1.3 m/s 0.0 mm 16.1° 1014.9 hPa 2.7 m/s 33.5 mm 16.8° 1017.1 hPa 0.7 m/s 0.0 mm 16.8° 1016.0 hPa 1.0 m/s 0.0 mm 17.1° 1016.5 hPa 1.8 m/s 0.0 mm 15.9° 1016.9 hPa 1.1 m/s
05:00 15.7° 1016.9 hPa 2.1 m/s 0.0 mm 14.2° 1015.3 hPa 2.3 m/s 33.5 mm 15.6° 1017.5 hPa 0.9 m/s 0.0 mm 15.8° 1016.4 hPa 1.3 m/s 0.0 mm 15.6° 1017.0 hPa 2.3 m/s 0.0 mm 14.5° 1017.4 hPa 1.5 m/s
08:00 17.2° 1018.1 hPa 1.9 m/s 0.0 mm 16.5° 1016.2 hPa 1.9 m/s 33.5 mm 17.4° 1018.2 hPa 0.9 m/s 0.0 mm 17.6° 1017.0 hPa 2.3 m/s 0.0 mm 16.5° 1018.4 hPa 1.9 m/s 0.0 mm 16.6° 1018.1 hPa 1.8 m/s
11:00 20.9° 1018.7 hPa 1.9 m/s 0.0 mm 21.4° 1016.5 hPa 2.3 m/s 33.5 mm 21.2° 1018.5 hPa 2.1 m/s 0.0 mm 20.5° 1018.9 hPa 1.9 m/s 0.0 mm 20.8° 1018.0 hPa 2.4 m/s
14:00 23.5° 1017.6 hPa 2.5 m/s 0.0 mm 24.2° 1015.4 hPa 2.6 m/s 33.5 mm 23.8° 1017.7 hPa 1.5 m/s 0.0 mm 23.0° 1017.9 hPa 2.7 m/s 0.0 mm 23.6° 1017.1 hPa 2.6 m/s
17:00 24.2° 1016.9 hPa 3.5 m/s 0.0 mm 24.7° 1013.8 hPa 4.0 m/s 33.5 mm 24.3° 1017.2 hPa 2.8 m/s 0.0 mm 23.6° 1017.4 hPa 3.6 m/s 0.0 mm 24.3° 1016.3 hPa 3.3 m/s
20:00 22.6° 1017.4 hPa 3.5 m/s 0.0 mm 24.3° 1013.8 hPa 4.0 m/s 33.5 mm 22.5° 1017.9 hPa 3.3 m/s 0.0 mm 21.4° 1017.8 hPa 3.2 m/s 0.0 mm 22.3° 1016.1 hPa 2.5 m/s
23:00 19.1° 1018.2 hPa 3.2 m/s 0.0 mm 21.4° 1013.6 hPa 4.7 m/s 33.5 mm 18.8° 1018.8 hPa 2.5 m/s 0.0 mm 18.1° 1018.8 hPa 3.2 m/s 0.0 mm 18.0° 1016.9 hPa 2.8 m/s
 05:28     21:35    Daglengte: 16:07 Zaterdag 22 Jun
02:00 17.4° 1018.3 hPa 3.8 m/s 0.0 mm 18.5° 1014.4 hPa 0.2 m/s 34.5 mm 17.0° 1019.1 hPa 3.8 m/s 0.0 mm 16.9° 1018.8 hPa 3.7 m/s 0.0 mm 16.6° 1016.6 hPa 3.1 m/s
05:00 16.2° 1017.8 hPa 4.9 m/s 0.0 mm 17.3° 1013.2 hPa 3.4 m/s 37.0 mm 15.2° 1018.8 hPa 3.5 m/s 0.0 mm 15.8° 1018.3 hPa 5.0 m/s 0.0 mm 15.9° 1015.5 hPa 3.1 m/s
08:00 16.5° 1018.1 hPa 4.9 m/s 0.0 mm 15.7° 1013.9 hPa 2.9 m/s 40.2 mm 16.3° 1019.4 hPa 3.9 m/s 0.0 mm 16.4° 1018.5 hPa 5.0 m/s 0.0 mm 16.7° 1016.1 hPa 2.9 m/s
11:00 20.0° 1017.2 hPa 4.5 m/s 0.0 mm 16.8° 1014.3 hPa 2.5 m/s 45.4 mm 20.2° 1018.2 hPa 4.0 m/s 0.0 mm 20.4° 1017.4 hPa 5.2 m/s 17.7° 1016.5 hPa 2.7 m/s
14:00 24.1° 1016.2 hPa 5.0 m/s 0.0 mm 21.7° 1013.9 hPa 3.0 m/s 48.1 mm 24.1° 1017.3 hPa 4.8 m/s 0.0 mm 24.5° 1016.3 hPa 5.5 m/s 19.8° 1016.3 hPa 2.0 m/s
17:00 22.7° 1016.6 hPa 4.3 m/s 18.7 mm 22.8° 1016.6 hPa 4.5 m/s 20.7° 1016.4 hPa 2.0 m/s 18.7 mm
20:00 21.8° 1016.8 hPa 3.8 m/s 22.4 mm 22.0° 1016.8 hPa 4.0 m/s 19.9° 1017.2 hPa 1.4 m/s 22.4 mm
23:00 19.7° 1017.5 hPa 3.6 m/s 24.1 mm 19.9° 1017.5 hPa 3.8 m/s 16.6° 1018.0 hPa 1.1 m/s 24.1 mm
 05:29     21:35    Daglengte: 16:06 Zondag 23 Jun
02:00 17.7° 1018.2 hPa 3.3 m/s 24.1 mm 17.9° 1018.2 hPa 3.6 m/s 15.2° 1017.8 hPa 0.4 m/s 24.1 mm
05:00 17.9° 1018.6 hPa 3.4 m/s 24.1 mm 18.2° 1018.8 hPa 3.7 m/s 14.3° 1017.5 hPa 0.5 m/s 24.1 mm
08:00 18.5° 1019.2 hPa 3.5 m/s 24.1 mm 18.6° 1019.3 hPa 3.8 m/s 17.0° 1018.1 hPa 0.6 m/s 24.1 mm
11:00 22.2° 1018.8 hPa 4.0 m/s 24.1 mm 22.3° 1018.9 hPa 4.3 m/s 21.5° 1017.8 hPa 0.9 m/s 24.1 mm
14:00 25.9° 1018.4 hPa 4.6 m/s 24.1 mm 26.0° 1018.5 hPa 4.8 m/s 24.9° 1017.5 hPa 2.3 m/s 24.1 mm
17:00 25.5° 1018.1 hPa 4.5 m/s 24.1 mm 25.4° 1018.2 hPa 4.7 m/s 26.3° 1016.8 hPa 2.3 m/s 24.1 mm
20:00 24.9° 1017.8 hPa 4.4 m/s 24.1 mm 24.9° 1017.9 hPa 4.6 m/s 24.8° 1017.0 hPa 2.0 m/s 24.1 mm
23:00 21.4° 1018.6 hPa 3.4 m/s 24.1 mm 21.5° 1018.5 hPa 3.5 m/s 20.2° 1018.7 hPa 1.4 m/s 24.1 mm
 05:29     21:35    Daglengte: 16:06 Maandag 24 Jun
02:00 18.2° 1019.2 hPa 2.4 m/s 24.1 mm 18.2° 1019.2 hPa 2.5 m/s 18.4° 1019.0 hPa 0.8 m/s 24.1 mm
05:00 18.9° 1019.4 hPa 2.9 m/s 24.1 mm 19.1° 1019.4 hPa 3.1 m/s 16.9° 1018.9 hPa 1.0 m/s 24.1 mm
08:00 20.0° 1019.6 hPa 3.5 m/s 24.1 mm 20.0° 1019.6 hPa 3.7 m/s 19.6° 1019.9 hPa 0.8 m/s 24.1 mm
11:00 24.5° 1019.3 hPa 3.6 m/s 24.1 mm 24.5° 1019.2 hPa 3.9 m/s 24.5° 1020.0 hPa 1.0 m/s 24.1 mm
14:00 29.0° 1018.9 hPa 3.8 m/s 24.1 mm 29.0° 1018.8 hPa 4.0 m/s 29.1° 1019.7 hPa 1.3 m/s 24.1 mm
17:00 28.6° 1018.6 hPa 3.1 m/s 24.1 mm 28.4° 1018.6 hPa 3.2 m/s 30.9° 1019.2 hPa 1.7 m/s 24.1 mm
20:00 27.7° 1018.5 hPa 2.5 m/s 24.1 mm 27.7° 1018.4 hPa 2.5 m/s 27.9° 1019.1 hPa 2.5 m/s 24.1 mm
23:00 23.3° 1019.4 hPa 2.1 m/s 24.1 mm 23.4° 1019.3 hPa 2.1 m/s 22.8° 1020.3 hPa 1.7 m/s 24.1 mm
 05:29     21:35    Daglengte: 16:06 Dinsdag 25 Jun
02:00 19.2° 1020.3 hPa 1.8 m/s 24.1 mm 19.1° 1020.3 hPa 1.8 m/s 20.6° 1020.3 hPa 1.2 m/s 24.1 mm
05:00 19.6° 1020.5 hPa 1.3 m/s 24.1 mm 19.6° 1020.6 hPa 1.4 m/s 18.6° 1019.4 hPa 1.0 m/s 24.1 mm
08:00 20.3° 1020.9 hPa 0.9 m/s 24.1 mm 20.2° 1021.0 hPa 0.9 m/s 21.3° 1019.8 hPa 1.0 m/s 24.1 mm
11:00 24.9° 1020.5 hPa 1.3 m/s 24.1 mm 24.8° 1020.6 hPa 1.4 m/s 26.4° 1019.5 hPa 1.0 m/s 24.1 mm
14:00 29.5° 1020.1 hPa 1.7 m/s 24.1 mm 29.4° 1020.2 hPa 1.8 m/s 31.1° 1019.0 hPa 0.6 m/s 24.1 mm
17:00 30.0° 1019.3 hPa 1.7 m/s 24.1 mm 29.8° 1019.4 hPa 1.8 m/s 32.8° 1018.3 hPa 1.1 m/s 24.1 mm
20:00 30.3° 1018.5 hPa 1.6 m/s 24.1 mm 30.2° 1018.6 hPa 1.7 m/s 30.9° 1017.8 hPa 1.0 m/s 24.1 mm
23:00 26.1° 1019.3 hPa 1.4 m/s 24.1 mm 26.2° 1019.4 hPa 1.4 m/s 25.1° 1019.0 hPa 1.8 m/s 24.1 mm
 05:30     21:35    Daglengte: 16:05 Woensdag 26 Jun
02:00 22.2° 1020.0 hPa 1.0 m/s 24.1 mm 22.3° 1020.1 hPa 1.0 m/s 21.7° 1018.8 hPa 1.3 m/s 24.1 mm
05:00 21.6° 1020.1 hPa 0.7 m/s 24.1 mm 21.8° 1020.2 hPa 0.7 m/s 19.5° 1018.4 hPa 1.3 m/s 24.1 mm
08:00 21.2° 1020.2 hPa 0.4 m/s 24.1 mm 21.2° 1020.4 hPa 0.3 m/s 21.2° 1018.6 hPa 2.0 m/s 24.1 mm
11:00 26.0° 1019.8 hPa 0.8 m/s 24.1 mm 26.0° 1020.0 hPa 0.7 m/s 26.2° 1018.6 hPa 1.9 m/s 24.1 mm
14:00 30.8° 1019.3 hPa 1.2 m/s 24.1 mm 30.8° 1019.5 hPa 1.1 m/s 31.3° 1017.6 hPa 2.1 m/s 24.1 mm
20:00 30.8° 1017.6 hPa 1.3 m/s 24.1 mm 30.8° 1017.7 hPa 1.2 m/s 30.8° 1016.4 hPa 2.0 m/s 24.1 mm
 05:30     21:35    Daglengte: 16:05 Donderdag 27 Jun
02:00 21.7° 1017.9 hPa 1.9 m/s 24.1 mm 21.7° 1018.0 hPa 1.9 m/s 21.7° 1016.4 hPa 2.2 m/s 24.1 mm
08:00 23.3° 1017.9 hPa 1.8 m/s 24.1 mm 23.4° 1018.1 hPa 1.8 m/s 22.1° 1015.6 hPa 1.3 m/s 24.1 mm
14:00 34.2° 1016.7 hPa 2.2 m/s 24.1 mm 34.4° 1016.9 hPa 2.3 m/s 31.5° 1014.4 hPa 1.3 m/s 24.1 mm
20:00 32.7° 1014.8 hPa 2.0 m/s 24.1 mm 32.8° 1014.9 hPa 2.0 m/s 31.2° 1013.7 hPa 1.5 m/s 24.1 mm
 05:31     21:35    Daglengte: 16:04 Vrijdag 28 Jun
02:00 24.2° 1015.7 hPa 2.2 m/s 24.1 mm 24.2° 1015.7 hPa 2.3 m/s 24.6° 1015.6 hPa 1.0 m/s 24.1 mm
08:00 24.5° 1016.1 hPa 1.2 m/s 24.2 mm 24.4° 1016.0 hPa 1.1 m/s 25.5° 1017.2 hPa 2.5 m/s 24.2 mm
14:00 35.4° 1014.4 hPa 2.3 m/s 24.4 mm 35.8° 1014.1 hPa 2.4 m/s 30.7° 1018.0 hPa 1.3 m/s 24.4 mm
20:00 32.6° 1012.2 hPa 1.9 m/s 24.6 mm 33.1° 1011.7 hPa 1.7 m/s 26.8° 1018.1 hPa 4.3 m/s 24.6 mm
 05:31     21:35    Daglengte: 16:04 Zaterdag 29 Jun
02:00 24.4° 1012.6 hPa 2.5 m/s 26.0 mm 24.7° 1012.0 hPa 2.5 m/s 21.6° 1019.3 hPa 2.4 m/s 26.0 mm
08:00 20.3° 1013.9 hPa 0.8 m/s 0.3 mm
14:00 27.0° 1012.9 hPa 0.5 m/s 0.3 mm
20:00 25.1° 1012.5 hPa 1.0 m/s 0.4 mm
 05:32     21:35    Daglengte: 16:03 Zondag 30 Jun
02:00 17.7° 1013.3 hPa 0.3 m/s 0.7 mm
08:00 19.6° 1013.7 hPa 1.4 m/s 1.0 mm
14:00 25.5° 1013.4 hPa 3.0 m/s 1.0 mm
20:00 23.6° 1013.4 hPa 2.0 m/s 0.6 mm
 05:32     21:34    Daglengte: 16:02 Maandag 01 Jul
02:00 16.0° 1014.8 hPa 0.9 m/s 0.4 mm
08:00 18.0° 1015.0 hPa 1.1 m/s 0.5 mm
14:00 23.6° 1014.1 hPa 2.7 m/s 0.6 mm
20:00 22.1° 1013.9 hPa 1.8 m/s 1.1 mm
 05:33     21:34    Daglengte: 16:01 Dinsdag 02 Jul
02:00 15.5° 1015.1 hPa 1.2 m/s 2.5 mm
08:00 17.1° 1015.4 hPa 1.9 m/s 1.8 mm
14:00 22.4° 1014.7 hPa 2.8 m/s 1.2 mm
20:00 20.8° 1014.7 hPa 2.0 m/s 1.2 mm
 05:34     21:34    Daglengte: 16:00 Woensdag 03 Jul
02:00 13.9° 1016.6 hPa 0.8 m/s 0.6 mm
08:00 15.4° 1017.3 hPa 0.6 m/s 0.2 mm
14:00 21.3° 1016.7 hPa 1.7 m/s 0.4 mm
20:00 20.3° 1016.4 hPa 1.4 m/s 0.9 mm
 05:34     21:33    Daglengte: 15:59 Donderdag 04 Jul
02:00 13.2° 1017.6 hPa 0.3 m/s 0.3 mm
08:00 15.8° 1018.0 hPa 0.3 m/s 0.6 mm
FMI Hirlam - 7.5 km EWN WRFDA - 12 km DWD ICON - 7 km GFS - 25 km Basiskaart






























































Updatetijd (Europe/Amsterdam) Resolutie Lengte Stap
FMI Hirlam 13:00, 19:00, 01:00, 07:00 7.5 km 49h 1h
EWN WRFDA 10:15, 16:15, 22:15, 04:15 12 km 73h 1h
DWD ICON 11:45, 17:45, 23:45, 05:45 7 km 75h 1h
GFS 08:45, 14:45, 20:45, 02:45 25 km 237h 3h
30+ mm
25-30 mm
20-25 mm
15-20 mm
10-15 mm
6-10 mm
4-6 mm
2-4 mm
1-2 mm
0.5-1 mm
0.2-0.5 mm
0.1-0.2 mm
30+ mm
25-30 mm
20-25 mm
15-20 mm
10-15 mm
6-10 mm
4-6 mm
2-4 mm
1-2 mm
0.5-1 mm
0.2-0.5 mm
0.1-0.2 mm
Sneeuwval
Natte sneeuw
Hagel
Vorst
30+ mm
25-30 mm
20-25 mm
15-20 mm
10-15 mm
6-10 mm
4-6 mm
2-4 mm
1-2 mm
0.5-1 mm
0.2-0.5 mm
0.1-0.2 mm
Sneeuwval
Natte sneeuw
Hagel
Vorst
Onweer
50 mm
40 mm
30 mm
26 mm
22 mm
18 mm
14 mm
10 mm
9 mm
8 mm
7 mm
6 mm
5 mm
4.5 mm
4 mm
3.5 mm
3 mm
2.5 mm
2 mm
1.5 mm
1 mm
0.8 mm
0.6 mm
0.4 mm
0.2 mm
0.05 mm
35°
30°
25°
20°
15°
10°
-5°
-10°
-15°
-20°
-25°
-30°
-35°
33> m/s
29 m/s
25 m/s
21 m/s
17 m/s
14 m/s
11 m/s
8 m/s
5 m/s
3 m/s
0 m/s
2600 J/kg
2400 J/kg
2200 J/kg
2000 J/kg
1800 J/kg
1600 J/kg
1400 J/kg
1200 J/kg
1000 J/kg
800 J/kg
600 J/kg
400 J/kg
200 J/kg
70 dBZ
65 dBZ
60 dBZ
55 dBZ
50 dBZ
45 dBZ
40 dBZ
35 dBZ
30 dBZ
25 dBZ
20 dBZ
15 dBZ
10 dBZ
5 dBZ
-1 K
-2 K
-3 K
-4 K
-5 K
-6 K
-7 K
-8 K
-9 K
950 m²/s²
900 m²/s²
850 m²/s²
800 m²/s²
750 m²/s²
700 m²/s²
650 m²/s²
600 m²/s²
550 m²/s²
500 m²/s²
450 m²/s²
400 m²/s²
350 m²/s²
300 m²/s²
250 m²/s²
200 m²/s²
150 m²/s²
100 m²/s²
46 m/s
44 m/s
42 m/s
40 m/s
38 m/s
36 m/s
34 m/s
32 m/s
30 m/s
28 m/s
26 m/s
24 m/s
22 m/s
20 m/s
16 m/s
12 m/s
8 m/s
4 m/s
30 m/s
28 m/s
26 m/s